Home > Weather > Pokhara > Past weeks

Flag for Nepal Past Weather in Pokhara, Nepal — Yesterday and Last 2 Weeks

Now
66 °F

Partly cloudy.


Feels Like: 66 °F
Forecast: 54 / 83 °F
Wind: No wind

Location: Kathmandu Airport

Current Time: Jun 1, 2016 at 1:46:55 AM

Latest Report: Jun 1, 2016 at 12:35 AM


Visibility: 4 mi

Pressure: 29.95 "Hg (27.13 "Hg at 847m altitude)

Humidity: 83%

Dew Point: 61 °F

Location of PokharaLocation

Past Weather in Pokhara — Graph

°F

Pokhara Temperature Yesterday

Maximum temperature yesterday: 81 °F (at 4:05 PM)
Minimum temperature yesterday: 63 °F (at 3:35 AM)
Average temperature yesterday: 69 °F

High & Low Weather Summary for the Past Weeks

 TemperatureHumidityPressure
High86 °F (May 17, 12:35 PM)100% (May 30, 5:35 AM)29.98 "Hg (May 30, 5:35 AM)
Low59 °F (May 18, 3:35 AM)26% (May 26, 11:35 AM)29.65 "Hg (May 25, 3:35 PM)
Average71 °F75%29.84 "Hg
* Reported May 17 12:05 AM — Jun 1 12:35 AM, Pokhara, Weather by CustomWeather, © 2016

Note: Actual official high and low records may vary slightly from our data, if they occured in-between our weather recording intervals... More about our weather records

Advertising

Pokhara Weather History for the Previous 24 Hours

Scroll right to see more
 ConditionsComfort  
Time TempWeatherWind HumidityBarometerVisibility
12:35 AM
Wed, Jun 1
66 °FPartly cloudy.No wind83%29.95 "Hg4 mi
12:05 AM66 °FPartly cloudy.No wind83%29.95 "Hg4 mi
11:35 PM
Tue, May 31
66 °FPartly cloudy.5 mph83%29.95 "Hg4 mi
11:05 PM66 °FPartly cloudy.2 mph78%29.95 "Hg4 mi
10:35 PM66 °FPartly cloudy.5 mph83%29.95 "Hg4 mi
10:05 PM66 °FPartly cloudy.5 mph83%29.95 "Hg4 mi
9:35 PM68 °FPassing clouds.3 mph78%29.95 "Hg4 mi
9:05 PM66 °FPassing clouds.5 mph78%29.92 "Hg4 mi
8:35 PM68 °FPassing clouds.3 mph73%29.92 "Hg4 mi
8:05 PM66 °FPassing clouds.3 mph78%29.92 "Hg4 mi
7:35 PM66 °FPassing clouds.5 mph78%29.89 "Hg5 mi
7:05 PM70 °FScattered clouds.10 mph69%29.89 "Hg5 mi
6:35 PM73 °FScattered clouds.7 mph69%29.86 "HgN/A
6:05 PM73 °FScattered clouds.5 mph69%29.86 "HgN/A
5:35 PM77 °FScattered clouds.10 mph61%29.83 "HgN/A
5:05 PM77 °FScattered clouds.12 mph61%29.83 "HgN/A
4:35 PM77 °FPassing clouds.9 mph61%29.83 "HgN/A
4:05 PM81 °FPassing clouds.8 mph54%29.83 "HgN/A
3:35 PM79 °FPassing clouds.7 mph58%29.83 "HgN/A
3:05 PM79 °FPassing clouds.8 mph58%29.86 "HgN/A
2:35 PM79 °FPassing clouds.7 mph61%29.86 "HgN/A
1:35 PM79 °FPassing clouds.2 mph48%29.89 "HgN/A
1:05 PM79 °FPassing clouds.3 mph48%29.89 "HgN/A
12:35 PM77 °FPassing clouds.5 mph54%29.92 "HgN/A
12:05 PM75 °FPassing clouds.6 mph61%29.92 "HgN/A
11:35 AM73 °FScattered clouds.5 mph69%29.95 "HgN/A
11:05 AM72 °FScattered clouds.3 mph73%29.95 "HgN/A
10:35 AM70 °FScattered clouds.6 mph78%29.95 "HgN/A
10:05 AM68 °FScattered clouds.3 mph78%29.98 "HgN/A
9:35 AM66 °FScattered clouds.2 mph83%29.98 "Hg5 mi
9:05 AM64 °FLight rain. Broken clouds.6 mph88%29.95 "Hg4 mi
8:35 AM63 °FLight rain. Broken clouds.2 mph94%29.95 "Hg4 mi
8:05 AM63 °FLight rain. Broken clouds.2 mph88%29.95 "Hg4 mi
7:35 AM63 °FLight rain. Broken clouds.2 mph88%29.95 "Hg4 mi
7:05 AM63 °FMore clouds than sun.3 mph88%29.95 "Hg4 mi
6:35 AM63 °FBroken clouds.8 mph83%29.92 "Hg4 mi
6:05 AM63 °FThunderstorms. Broken clouds.5 mph88%29.92 "Hg2 mi
5:35 AM64 °FRain. Partly cloudy.7 mph94%29.89 "Hg2 mi
4:35 AM64 °FThunderstorms. Partly cloudy.No wind94%29.86 "Hg4 mi
3:35 AM63 °FThunderstorms. Passing clouds.No wind94%29.86 "Hg4 mi
2:35 AM64 °FPartly cloudy.2 mph88%29.86 "Hg4 mi
1:35 AM64 °FPartly cloudy.2 mph88%29.86 "Hg4 mi
Weather by CustomWeather, © 2016

See weather overviewHow to use our weather pages